Regional Weather Roundup
Issued by NWS Upton, NY

Current Version | Previous Version | Graphics & Text | Print | Product List | Glossary Off
Versions: 1 2 3 4 5 6 7 8 9 10 11 12 13 14 15 16 17 18 19 20 21 22 23 24 25 26 27 28 29 30 31 32 33 34 35 36 37 38 39 40 41 42 43 44 45 46 47 48 49 50

000
ASUS41 KOKX 051508
RWROKX

REGIONAL WEATHER ROUNDUP
NATIONAL WEATHER SERVICE NEW YORK NY
1100 AM EDT SUN JUL 05 2015

NOTE: "FAIR" INDICATES FEW OR NO CLOUDS BELOW 12,000 FEET WITH NO
SIGNIFICANT WEATHER AND/OR OBSTRUCTIONS TO VISIBILITY.

NYZ071-072-176-178-NJZ106-104-051600-
NEW YORK CITY METRO AREA


CITY           SKY/WX    TMP DP  RH WIND       PRES   REMARKS
CENTRAL PARK   MOSUNNY   76  61  59 CALM      30.16S
LAGUARDIA APRT PTSUNNY   77  61  57 N5        30.12S
KENNEDY INTL   PTSUNNY   78  62  57 SW10      30.13S
NEWARK/LIBERTY PTSUNNY   78  62  57 W7        30.13S
BRNX BOT. GARD   N/A     75  61  60 SW9       30.15S
TETERBORO      MOSUNNY   78  62  57 VRB3      30.12R
$$

NYZ177-179-078>081-051600-
LONG ISLAND NEW YORK

CITY           SKY/WX    TMP DP  RH WIND       PRES   REMARKS
FARMINGDALE    MOSUNNY   78  61  55 W7        30.13S
ISLIP          PTSUNNY   78  60  53 NW8       30.11S
SHIRLEY        MOSUNNY   78  60  53 NW6       30.13S
WESTHAMPTON    MOSUNNY   78  60  53 W8        30.13F
MONTAUK POINT    N/A     74  63  68 W7        30.13S
$$

NYZ052-065-067-051600-
HUDSON VALLEY

CITY           SKY/WX    TMP DP  RH WIND       PRES   REMARKS
WHITE PLAINS   MOSUNNY   74  63  68 VRB3      30.13S
NEWBURGH       MOSUNNY   73  64  73 CALM      30.15R
MONTGOMERY     SUNNY     75  64  68 S5        30.13S
POUGHKEEPSIE   SUNNY     74  61  63 CALM      30.12S
ALBANY         MOSUNNY   75  63  66 CALM      30.12S
$$

NJZ001-105-106-008-010-013-015-019>022-104-051600-
NEW JERSEY

CITY           SKY/WX    TMP DP  RH WIND       PRES   REMARKS
NEWARK/LIBERTY PTSUNNY   78  62  57 W7        30.13S
TETERBORO      MOSUNNY   78  62  57 VRB3      30.12R
CALDWELL       MOSUNNY   75  61  61 NW7       30.14S
MORRISTOWN     PTSUNNY   77  66  69 NW7       30.14S
SOMERVILLE     MOSUNNY   77  62  59 CALM      30.12S
SUSSEX         MOSUNNY   72  63  73 W3        30.15S
ANDOVER          N/A     70  62  76 VRB3      30.16F
TRENTON        MOSUNNY   76  63  64 NW5       30.15R
MILLVILLE      PTSUNNY   77  65  66 SE5       30.15R
ATLANTIC CITY  MOSUNNY   79  63  57 W3        30.15R
WRIGHTSTOWN    SUNNY     77  64  63 CALM      30.13R
TOMS RIVER     MOSUNNY   79  61  53 CALM      30.15S
BELMAR         MOSUNNY   75  61  60 W7        30.15R
$$

PAZ047>061-062-071-051600-
EASTERN PENNSYLVANIA

CITY           SKY/WX    TMP DP  RH WIND       PRES   REMARKS
PHILADELPHIA   PTSUNNY   77  61  57 S5        30.15S
ALLENTOWN      MOSUNNY   72  63  73 W5        30.16S
SCRANTON       PTSUNNY   68  59  73 VRB6      30.18S
$$

CTZ002-004>006-009-010-012-RIZ004-006-007-MAZ004-011-015-051600-
SOUTHERN NEW ENGLAND
 IN CT

CITY           SKY/WX    TMP DP  RH WIND       PRES   REMARKS
BRADLEY INTL   MOSUNNY   77  63  61 VRB3      30.09F
HARTFORD       SUNNY     76  63  64 VRB7      30.10S
DANBURY        SUNNY     74  60  61 CALM      30.14S
WTRBRY/OXFORD  SUNNY     73  61  64 CALM      30.15S
BRIDGEPORT     SUNNY     74  63  68 SW13      30.12S
MERIDEN        SUNNY     77  62  59 VRB3      30.11S
NEW HAVEN      SUNNY     73  63  70 S8        30.12S
CHESTER        FAIR      75  61  60 W5        30.12S
GROTON         SUNNY     72  62  71 SW12      30.10R
WILLIMANTIC    SUNNY     76  62  62 W6        30.10S

 IN RI

CITY           SKY/WX    TMP DP  RH WIND       PRES   REMARKS
PROVIDENCE     SUNNY     77  62  59 VRB5      30.08F
BLOCK ISLAND   SUNNY     72  61  68 W12       30.11S
WESTERLY       SUNNY     75  63  66 SW6       30.10F

 IN MA

CITY           SKY/WX    TMP DP  RH WIND       PRES   REMARKS
BOSTON         SUNNY     77  60  55 NW9       30.07S
WORCESTER      SUNNY     74  58  57 W9        30.11S
WESTFIELD      SUNNY     75  60  59 CALM      30.10S
PROVINCETOWN   SUNNY     75  16  10 W9        30.07F
NANTUCKET      SUNNY     72  62  71 SW14      30.10R
$$

ANZ330-335-338-340-345-350-353-355-051600-
COASTAL MARINE OBSERVATIONS


STATION/POSITION TIME  SKY/WX   TEMP    WIND        PRES    VSBY  WAVE
                                AIR SEA DIR/SP/G                  HT/PER
                 (UTC)          (F)     (DEG/KT/KT) (MB)    (MI)  (FT/S)
NY HARB ENTRANCE 1450            70 70  280/  4/  6 1020.2          4/ 8
4S FIRE IS       1403               70                N/A           4/ 8
20S FIRE ISLAND  1450            69 69  260/  6/  6 1020.4          4/ 8
GREAT SOUTH BAY  1400            73 75  280/  2/  6   N/A
23SW MTP         1450            69 69  250/  8/ 10 1019.9          4/ 8
HUDSON CANYON    NOT AVBL
KINGS POINT      1400            74 80   20/  1/  2 1019.6
CENTRAL LI SOUND NOT AVBL
EASTERN LI SOUND 1400            66 64  230/  8/ 10   N/A
ROBBINS REEF     1400            72     290/  5/  6 1019.2
$$


>>>>>>>>>>>>>>>>>>>>>>>>>>>> KEY <<<<<<<<<<<<<<<<<<<<<<<<<<<
>                                                          <
>     SKY/WX - SKY CONDITION/PRESENT WEATHER               <
>     TMP    - TEMPERATURE IN FAHRENHEIT                   <
>     DP     - DEWPOINT IN FAHRENHEIT                      <
>     RH     - RELATIVE HUMIDITY IN PERCENT                <
>     WIND   - DIRECTION AND SPEED IN MPH                  <
>     PRES   - MEAN SEA LEVEL PRESSURE IN INCHES OF HG     <
>     WCI    - WIND CHILL INDEX                            <
>     VSB    - VISIBILITY IN MILES                         <
>     HX     - HEAT INDEX                                  <
>     TC     - TEMPERATURE IN CELSIUS                      <
>     VRB    - VARIABLE WIND DIRECTION                     <
>                                                          <
>>>>>>>>>>>>>>>>>>>>>>>>>>>> KEY <<<<<<<<<<<<<<<<<<<<<<<<<<<




USA.gov is the U.S. government's official web portal to all federal, state and local government web resources and services.